H1 CPF 2 NER 2022 1 25 9 025 01 glonass132 H2 1401201 9132 39620 2022 1 25 0 0 0 2022 1 28 23 45 0 900 1 1 0 0 0 1 H9 10 0 59604 0.00000 0 -593211.200 -18707649.514 17322197.009 10 0 59604 900.00000 0 361851.974 -16653071.858 19317656.778 10 0 59604 1800.00000 0 1588660.129 -14489656.727 20937903.919 10 0 59604 2700.00000 0 3078481.880 -12285488.948 22151713.316 10 0 59604 3600.00000 0 4809780.383 -10107225.070 22935774.938 10 0 59604 4500.00000 0 6748906.681 -8017446.716 23275124.738 10 0 59604 5400.00000 0 8851307.914 -6072205.747 23163413.911 10 0 59604 6300.00000 0 11063199.768 -4318861.559 22603013.108 10 0 59604 7200.00000 0 13323633.524 -2794298.303 21604951.092 10 0 59604 8100.00000 0 15566872.324 -1523593.587 20188690.201 10 0 59604 9000.00000 0 17724978.873 -519191.466 18381743.597 10 0 59604 9900.00000 0 19730508.248 219388.167 16219141.910 10 0 59604 10800.00000 0 21519195.481 705293.762 13742759.293 10 0 59604 11700.00000 0 23032527.721 963552.085 11000511.180 10 0 59604 12600.00000 0 24220095.335 1029777.972 8045438.349 10 0 59604 13500.00000 0 25041625.292 948438.366 4934693.757 10 0 59604 14400.00000 0 25468612.869 770743.443 1728450.497 10 0 59604 15300.00000 0 25485483.925 552253.013 -1511249.184 10 0 59604 16200.00000 0 25090239.127 350298.374 -4721682.640 10 0 59604 17100.00000 0 24294552.582 221327.600 -7840651.346 10 0 59604 18000.00000 0 23123319.768 218285.760 -10807678.465 10 0 59604 18900.00000 0 21613672.356 388140.439 -13565176.837 10 0 59604 19800.00000 0 19813499.596 769657.301 -16059565.041 10 0 59604 20700.00000 0 17779536.575 1391520.344 -18242309.888 10 0 59604 21600.00000 0 15575097.734 2270877.474 -20070875.032 10 0 59604 22500.00000 0 13267549.019 3412374.647 -21509556.946 10 0 59604 23400.00000 0 10925623.275 4807721.480 -22530191.443 10 0 59604 24300.00000 0 8616690.253 6435809.310 -23112716.313 10 0 59604 25200.00000 0 6404094.858 8263379.470 -23245578.214 10 0 59604 26100.00000 0 4344674.840 10246216.395 -22925974.778 10 0 59604 27000.00000 0 2486561.889 12330817.897 -22159926.044 10 0 59604 27900.00000 0 867358.500 14456474.579 -20962172.518 10 0 59604 28800.00000 0 -487232.466 16557672.448 -19355900.605 10 0 59604 29700.00000 0 -1564267.667 18566718.724 -17372299.675 10 0 59604 30600.00000 0 -2363876.269 20416480.687 -15049958.469 10 0 59604 31500.00000 0 -2899012.885 22043121.931 -12434112.188 10 0 59604 32400.00000 0 -3194661.410 23388720.047 -9575754.869 10 0 59604 33300.00000 0 -3286524.354 24403654.342 -6530634.746 10 0 59604 34200.00000 0 -3219254.476 25048661.709 -3358153.226 10 0 59604 35100.00000 0 -3044305.502 25296472.941 -120190.244 10 0 59604 36000.00000 0 -2817495.116 25132959.769 3120119.414 10 0 59604 36900.00000 0 -2596385.862 24557744.046 6299633.077 10 0 59604 37800.00000 0 -2437597.216 23584243.803 9356444.380 10 0 59604 38700.00000 0 -2394164.776 22239155.164 12231098.871 10 0 59604 39600.00000 0 -2513059.967 20561393.346 14867756.135 10 0 59604 40500.00000 0 -2832976.236 18600538.960 17215275.196 10 0 59604 41400.00000 0 -3382475.741 16414856.499 19228202.045 10 0 59604 42300.00000 0 -4178574.575 14068969.691 20867640.619 10 0 59604 43200.00000 0 -5225825.529 11631292.004 22101991.449 10 0 59604 44100.00000 0 -6515936.125 9171320.155 22907545.186 10 0 59604 45000.00000 0 -8027936.895 6756903.330 23268921.279 10 0 59604 45900.00000 0 -9728892.028 4451600.900 23179345.227 10 0 59604 46800.00000 0 -11575122.051 2312236.910 22640760.860 10 0 59604 47700.00000 0 -13513887.218 386750.951 21663776.996 10 0 59604 48600.00000 0 -15485461.659 -1287567.832 20267450.717 10 0 59604 49500.00000 0 -17425512.537 -2685392.841 18478912.125 10 0 59604 50400.00000 0 -19267686.134 -3794166.221 16332838.089 10 0 59604 51300.00000 0 -20946294.506 -4614367.905 13870784.864 10 0 59604 52200.00000 0 -22398992.275 -5159238.256 11140391.805 10 0 59604 53100.00000 0 -23569333.352 -5453967.185 8194470.652 10 0 59604 54000.00000 0 -24409102.211 -5534384.551 5089996.767 10 0 59604 54900.00000 0 -24880323.289 -5445207.021 1887020.569 10 0 59604 55800.00000 0 -24956865.001 -5237914.796 -1352480.957 10 0 59604 56700.00000 0 -24625571.258 -4968347.056 -4565791.599 10 0 59604 57600.00000 0 -23886872.600 -4694116.748 -7690660.104 10 0 59604 58500.00000 0 -22754850.343 -4471953.064 -10666498.566 10 0 59604 59400.00000 0 -21256749.610 -4355083.317 -13435552.331 10 0 59604 60300.00000 0 -19431959.914 -4390764.625 -15944019.087 10 0 59604 61200.00000 0 -17330504.095 -4618069.912 -18143095.429 10 0 59604 62100.00000 0 -15011096.929 -5066022.525 -19989930.503 10 0 59604 63000.00000 0 -12538852.748 -5752159.539 -21448467.917 10 0 59604 63900.00000 0 -9982736.370 -6681586.141 -22490158.970 10 0 59604 64800.00000 0 -7412862.546 -7846563.167 -23094532.668 10 0 59604 65700.00000 0 -4897755.776 -9226647.672 -23249610.532 10 0 59604 66600.00000 0 -2501684.534 -10789383.111 -22952156.991 10 0 59604 67500.00000 0 -282181.041 -12491512.530 -22207759.331 10 0 59604 68400.00000 0 1712149.573 -14280665.921 -21030734.326 10 0 59604 69300.00000 0 3443438.676 -16097452.345 -19443862.108 10 0 59604 70200.00000 0 4885905.968 -17877869.912 -17477951.386 10 0 59604 71100.00000 0 6026696.745 -19555932.625 -15171243.533 10 0 59604 72000.00000 0 6866169.322 -21066403.193 -12568666.716 10 0 59604 72900.00000 0 7417620.878 -22347515.923 -9720954.523 10 0 59604 73800.00000 0 7706464.066 -23343573.721 -6683646.626 10 0 59604 74700.00000 0 7768890.394 -24007308.216 -3515991.993 10 0 59604 75600.00000 0 7650078.689 -24301902.114 -279777.312 10 0 59604 76500.00000 0 7402026.546 -24202587.259 2961894.888 10 0 59604 77400.00000 0 7081098.984 -23697750.292 6145852.678 10 0 59604 78300.00000 0 6745400.518 -22789499.115 9210099.700 10 0 59604 79200.00000 0 6452084.211 -21493666.680 12095032.819 10 0 59604 80100.00000 0 6254713.450 -19839252.896 14744607.490 10 0 59604 81000.00000 0 6200789.412 -17867329.474 17107427.494 10 0 59604 81900.00000 0 6329549.387 -15629455.093 19137737.799 10 0 59604 82800.00000 0 6670128.950 -13185668.867 20796301.715 10 0 59604 83700.00000 0 7240164.938 -10602147.167 22051146.396 10 0 59604 84600.00000 0 8044897.103 -7948622.286 22878163.782 10 0 59604 85500.00000 0 9076804.991 -5295670.708 23261557.066 10 0 59605 0.00000 0 10315794.013 -2711983.377 23194125.993 10 0 59605 900.00000 0 11729922.587 -261728.773 22677387.177 10 0 59605 1800.00000 0 13276637.560 1997880.087 21721528.839 10 0 59605 2700.00000 0 14904468.273 4018720.687 20345201.950 10 0 59605 3600.00000 0 16555107.176 5763508.562 18575152.510 10 0 59605 4500.00000 0 18165791.465 7207088.742 16445702.401 10 0 59605 5400.00000 0 19671887.296 8337219.669 13998088.576 10 0 59605 6300.00000 0 21009570.050 9154819.102 11279672.722 10 0 59605 7200.00000 0 22118490.018 9673663.389 8343035.727 10 0 59605 8100.00000 0 22944313.394 9919553.857 5244973.328 10 0 59605 9000.00000 0 23441033.335 9928985.799 2045411.013 10 0 59605 9900.00000 0 23572954.940 9747375.958 -1193741.941 10 0 59605 10800.00000 0 23316271.174 9426922.664 -4409778.324 10 0 59605 11700.00000 0 22660163.261 9024188.081 -7540396.795 10 0 59605 12600.00000 0 21607378.507 8597503.705 -10524900.977 10 0 59605 13500.00000 0 20174259.874 8204307.861 -13305371.215 10 0 59605 14400.00000 0 18390224.239 7898527.147 -15827786.633 10 0 59605 15300.00000 0 16296709.115 7728112.211 -18043075.726 10 0 59605 16200.00000 0 13945629.711 7732832.236 -19908075.041 10 0 59605 17100.00000 0 11397408.661 7942422.045 -21386377.029 10 0 59605 18000.00000 0 8718658.810 8375161.265 -22449050.008 10 0 59605 18900.00000 0 5979614.144 9036947.246 -23075215.564 10 0 59605 19800.00000 0 3251414.731 9920902.819 -23252471.231 10 0 59605 20700.00000 0 603358.202 11007537.667 -22977149.162 10 0 59605 21600.00000 0 -1899768.043 12265458.743 -22254404.520 10 0 59605 22500.00000 0 -4200162.576 13652601.871 -21098130.618 10 0 59605 23400.00000 0 -6249189.928 15117934.322 -19530701.210 10 0 59605 24300.00000 0 -8009173.297 16603557.859 -17582543.805 10 0 59605 25200.00000 0 -9454724.514 18047124.192 -15291551.450 10 0 59605 26100.00000 0 -10573555.221 19384460.919 -12702343.915 10 0 59605 27000.00000 0 -11366735.261 20552296.537 -9865392.593 10 0 59605 27900.00000 0 -11848387.964 21490968.363 -6836026.513 10 0 59605 28800.00000 0 -12044836.123 22146997.509 -3673339.827 10 0 59605 29700.00000 0 -11993236.283 22475420.606 -439023.340 10 0 59605 30600.00000 0 -11739761.050 22441778.306 2803855.514 10 0 59605 31500.00000 0 -11337408.572 22023675.444 5992098.539 10 0 59605 32400.00000 0 -10843534.388 21211846.345 9063622.473 10 0 59605 33300.00000 0 -10317212.458 20010680.240 11958678.624 10 0 59605 34200.00000 0 -9816539.119 18438185.106 14621021.413 10 0 59605 35100.00000 0 -9395995.584 16525392.362 16999002.393 10 0 59605 36000.00000 0 -9103981.383 14315228.607 19046568.378 10 0 59605 36900.00000 0 -8980623.157 11860903.004 20724144.703 10 0 59605 37800.00000 0 -9055950.760 9223878.937 21999387.544 10 0 59605 38700.00000 0 -9348516.583 6471515.363 22847792.209 10 0 59605 39600.00000 0 -9864514.786 3674476.542 23253147.349 10 0 59605 40500.00000 0 -10597435.986 904017.520 23207828.201 10 0 59605 41400.00000 0 -11528270.452 -1770742.847 22712925.021 10 0 59605 42300.00000 0 -12626250.145 -4285449.645 21778205.794 10 0 59605 43200.00000 0 -13850097.776 -6582933.549 20421915.185 10 0 59605 44100.00000 0 -15149730.405 -8615328.344 18670414.356 10 0 59605 45000.00000 0 -16468346.546 -10345798.915 16557668.935 10 0 59605 45900.00000 0 -17744810.235 -11749810.501 14124594.809 10 0 59605 46800.00000 0 -18916233.395 -12815888.687 11418273.764 10 0 59605 47700.00000 0 -19920649.665 -13545840.301 8491053.226 10 0 59605 48600.00000 0 -20699669.002 -13954427.424 5399546.359 10 0 59605 49500.00000 0 -21201002.953 -14068508.978 2203550.532 10 0 59605 50400.00000 0 -21380755.482 -13925686.116 -1035096.062 10 0 59605 51300.00000 0 -21205383.585 -13572508.131 -4253698.725 10 0 59605 52200.00000 0 -20653245.216 -13062313.773 -7389909.598 10 0 59605 53100.00000 0 -19715668.763 -12452798.063 -10382927.413 10 0 59605 54000.00000 0 -18397497.873 -11803406.350 -13174671.035 10 0 59605 54900.00000 0 -16717086.926 -11172664.777 -15710904.383 10 0 59605 55800.00000 0 -14705745.200 -10615559.299 -17942290.960 10 0 59605 56700.00000 0 -12406650.595 -10181073.730 -19825357.462 10 0 59605 57600.00000 0 -9873275.869 -9909990.995 -21323347.453 10 0 59605 58500.00000 0 -7167390.866 -9833051.091 -22406947.972 10 0 59605 59400.00000 0 -4356722.060 -9969544.655 -23054874.262 10 0 59605 60300.00000 0 -1512365.286 -10326402.974 -23254300.339 10 0 59605 61200.00000 0 1293941.595 -10897824.615 -23001125.935 10 0 59605 62100.00000 0 3992573.185 -11665456.308 -22300073.420 10 0 59605 63000.00000 0 6518683.654 -12599122.331 -21164611.524 10 0 59605 63900.00000 0 8814674.959 -13658073.209 -19616706.088 10 0 59605 64800.00000 0 10832362.754 -14792702.285 -17686401.564 10 0 59605 65700.00000 0 12534748.941 -15946658.413 -15411240.506 10 0 59605 66600.00000 0 13897326.077 -17059265.634 -12835531.832 10 0 59605 67500.00000 0 14908858.775 -18068147.113 -10009482.017 10 0 59605 68400.00000 0 15571609.409 -18911941.384 -6988206.494 10 0 59605 69300.00000 0 15900999.252 -19532994.575 -3830641.442 10 0 59605 70200.00000 0 15924720.562 -19879913.099 -598378.504 10 0 59605 71100.00000 0 15681338.809 -19909867.161 2645553.303 10 0 59605 72000.00000 0 15218446.217 -19590546.216 5837932.789 10 0 59605 72900.00000 0 14590447.072 -18901682.682 8916592.909 10 0 59605 73800.00000 0 13856070.890 -17836078.974 11821642.303 10 0 59605 74700.00000 0 13075720.810 -16400094.550 14496636.926 10 0 59605 75600.00000 0 12308771.130 -14613572.943 16889678.302 10 0 59605 76500.00000 0 11610929.319 -12509212.655 18954416.883 10 0 59605 77400.00000 0 11031774.411 -10131409.418 20650941.386 10 0 59605 78300.00000 0 10612575.259 -7534619.327 21946537.931 10 0 59605 79200.00000 0 10384479.733 -4781311.991 22816305.693 10 0 59605 80100.00000 0 10367149.563 -1939599.576 23243618.859 10 0 59605 81000.00000 0 10567896.520 919359.759 23220427.889 10 0 59605 81900.00000 0 10981354.380 3724076.858 22747396.037 10 0 59605 82800.00000 0 11589698.778 6405453.502 21833870.118 10 0 59605 83700.00000 0 12363404.428 8899400.246 20497687.327 10 0 59605 84600.00000 0 13262507.159 11149243.806 18764822.623 10 0 59605 85500.00000 0 14238317.594 13107826.474 16668883.841 10 0 59606 0.00000 0 15235514.834 14739212.757 14250464.338 10 0 59606 900.00000 0 16194533.672 16019935.438 11556363.705 10 0 59606 1800.00000 0 17054144.916 16939728.985 8638694.112 10 0 59606 2700.00000 0 17754123.553 17501724.241 5553883.985 10 0 59606 3600.00000 0 18237892.594 17722094.975 2361600.267 10 0 59606 4500.00000 0 18455033.002 17629172.505 -876392.362 10 0 59606 5400.00000 0 18363554.736 17262065.315 -4097414.204 10 0 59606 6300.00000 0 17931833.486 16668841.208 -7239073.370 10 0 59606 7200.00000 0 17140131.205 15904347.621 -10240466.125 10 0 59606 8100.00000 0 15981635.390 15027760.976 -13043352.135 10 0 59606 9000.00000 0 14462971.778 14099967.357 -15593282.223 10 0 59606 9900.00000 0 12604166.809 13180884.127 -17840656.796 10 0 59606 10800.00000 0 10438058.920 12326834.884 -19741694.378 10 0 59606 11700.00000 0 8009180.639 11588088.252 -21259291.139 10 0 59606 12600.00000 0 5372155.623 11006664.544 -22363754.149 10 0 59606 13500.00000 0 2589675.136 10614503.377 -23033393.438 10 0 59606 14400.00000 0 -269863.749 10432070.557 -23254960.440 10 0 59606 15300.00000 0 -3134961.312 10467464.247 -23023923.168 10 0 59606 16200.00000 0 -5933752.333 10716059.628 -22344571.612 10 0 59606 17100.00000 0 -8596763.781 11160708.570 -21229949.989 10 0 59606 18000.00000 0 -11059577.993 11772487.267 -19701615.924 10 0 59606 18900.00000 0 -13265289.953 12511961.416 -17789230.120 10 0 59606 19800.00000 0 -15166655.461 13330916.179 -15529983.575 10 0 59606 20700.00000 0 -16727839.579 14174477.969 -12967872.967 10 0 59606 21600.00000 0 -17925691.628 14983537.925 -10152838.199 10 0 59606 22500.00000 0 -18750492.999 15697373.581 -7139779.207 10 0 59606 23400.00000 0 -19206146.507 16256356.311 -3987472.134 10 0 59606 24300.00000 0 -19309800.127 16604628.218 -757407.216 10 0 59606 25200.00000 0 -19090922.287 16692633.302 2487427.326 10 0 59606 26100.00000 0 -18589869.569 16479394.012 5683789.835 10 0 59606 27000.00000 0 -17856009.519 15934435.489 8769432.138 10 0 59606 27900.00000 0 -16945480.249 15039275.140 11684322.946 10 0 59606 28800.00000 0 -15918683.767 13788414.260 14371822.564 10 0 59606 29700.00000 0 -14837620.940 12189789.934 16779785.296 10 0 59606 30600.00000 0 -13763182.012 10264668.726 18861567.955 10 0 59606 31500.00000 0 -12752507.764 8046987.445 20576925.228 10 0 59606 32400.00000 0 -11856532.529 5582169.520 21892775.534 10 0 59606 33300.00000 0 -11117811.735 2925467.244 22783823.977 10 0 59606 34200.00000 0 -10568723.989 139899.657 23233032.008 10 0 59606 35100.00000 0 -10230121.366 -2706128.010 23231926.651 10 0 59606 36000.00000 0 -10110482.478 -5541424.815 22780745.086 10 0 59606 36900.00000 0 -10205601.779 -8294727.454 21888413.448 10 0 59606 37800.00000 0 -10498826.238 -10897415.456 20572361.498 10 0 59606 38700.00000 0 -10961828.049 -13286117.568 18858177.577 10 0 59606 39600.00000 0 -11555880.028 -15405103.344 16779110.866 10 0 59606 40500.00000 0 -12233579.907 -17208363.048 14375430.435 10 0 59606 41400.00000 0 -12940951.392 -18661291.688 11693652.883 10 0 59606 42300.00000 0 -13619834.450 -19741909.055 8785652.660 10 0 59606 43200.00000 0 -14210465.417 -20441566.597 5707671.107 10 0 59606 44100.00000 0 -14654139.560 -20765112.715 2519242.120 10 0 59606 45000.00000 0 -14895845.124 -20730510.159 -717945.990 10 0 59606 45900.00000 0 -14886758.785 -20367921.639 -3941231.597 10 0 59606 46800.00000 0 -14586497.806 -19718301.602 -7088182.030 10 0 59606 47700.00000 0 -13965033.869 -18831552.565 -10097794.467 10 0 59606 48600.00000 0 -13004187.267 -17764322.527 -12911672.835 10 0 59606 49500.00000 0 -11698637.130 -16577535.039 -15475158.305 10 0 59606 50400.00000 0 -10056403.307 -15333754.878 -17738391.521 10 0 59606 51300.00000 0 -8098777.230 -14094499.372 -19657285.922 10 0 59606 52200.00000 0 -5859701.890 -12917608.044 -21194392.997 10 0 59606 53100.00000 0 -3384624.135 -11854781.134 -22319642.086 10 0 59606 54000.00000 0 -728864.459 -10949390.807 -23010939.700 10 0 59606 54900.00000 0 2044430.119 -10234657.776 -23254615.794 10 0 59606 55800.00000 0 4866666.685 -9732271.003 -23045707.198 10 0 59606 56700.00000 0 7666422.833 -9451509.699 -22388071.517 10 0 59606 57600.00000 0 10372190.746 -9388905.807 -21294327.973 10 0 59606 58500.00000 0 12915134.749 -9528462.356 -19785625.062 10 0 59606 59400.00000 0 15231747.170 -9842419.381 -17891238.419 10 0 59606 60300.00000 0 17266291.009 -10292535.674 -15648005.774 10 0 59606 61200.00000 0 18972926.434 -10831832.311 -13099609.450 10 0 59606 62100.00000 0 20317431.276 -11406723.844 -10295720.259 10 0 59606 63000.00000 0 21278442.775 -11959445.979 -7291019.740 10 0 59606 63900.00000 0 21848168.129 -12430675.580 -4144120.743 10 0 59606 64800.00000 0 22032534.264 -12762230.185 -916408.598 10 0 59606 65700.00000 0 21850771.374 -12899730.758 2329172.942 10 0 59606 66600.00000 0 21334449.194 -12795112.932 5529365.430 10 0 59606 67500.00000 0 20526008.561 -12408878.709 8621843.136 10 0 59606 68400.00000 0 19476852.456 -11711992.004 11546438.184 10 0 59606 69300.00000 0 18245079.342 -10687337.137 14246318.225 10 0 59606 70200.00000 0 16892956.553 -9330678.395 16669092.937 10 0 59606 71100.00000 0 15484241.935 -7651080.401 18767827.644 10 0 59606 72000.00000 0 14081467.691 -5670772.241 20501944.686 10 0 59606 72900.00000 0 12743301.065 -3424461.755 21837995.999 10 0 59606 73800.00000 0 11522092.379 -958129.465 22750293.375 10 0 59606 74700.00000 0 10461712.251 1672646.807 23221385.844 10 0 59606 75600.00000 0 9595766.926 4404766.588 23242376.880 10 0 59606 76500.00000 0 8946264.362 7169994.529 22813077.073 10 0 59606 77400.00000 0 8522784.591 9897562.704 21941990.991 10 0 59606 78300.00000 0 8322186.801 12516880.675 20646139.751 10 0 59606 79200.00000 0 8328863.392 14960242.494 18950723.575 10 0 59606 80100.00000 0 8515528.807 17165420.237 16888631.242 10 0 59606 81000.00000 0 8844509.089 19078038.557 14499805.818 10 0 59606 81900.00000 0 9269477.650 20653633.742 11830478.330 10 0 59606 82800.00000 0 9737564.576 21859313.497 8932283.415 10 0 59606 83700.00000 0 10191751.414 22674949.992 5861272.874 10 0 59606 84600.00000 0 10573451.597 23093857.563 2676844.968 10 0 59606 85500.00000 0 10825168.901 23122927.401 -559391.027 10 0 59607 0.00000 0 10893122.802 22782213.809 -3784793.966 10 0 59607 900.00000 0 10729730.696 22103988.786 -6936893.639 10 0 59607 1800.00000 0 10295842.446 21131304.351 -9954590.398 10 0 59607 2700.00000 0 9562632.771 19916121.338 -12779334.809 10 0 59607 3600.00000 0 8513070.568 18517082.414 -15356260.554 10 0 59607 4500.00000 0 7142901.750 16997021.567 -17635250.424 10 0 59607 5400.00000 0 5461102.035 15420313.661 -19571914.443 10 0 59607 6300.00000 0 3489778.021 13850174.545 -21128460.842 10 0 59607 7200.00000 0 1263517.861 12346024.682 -22274442.418 10 0 59607 8100.00000 0 -1171784.204 10961026.862 -22987363.109 10 0 59607 9000.00000 0 -3760583.124 9739901.656 -23253132.072 10 0 59607 9900.00000 0 -6439751.277 8717112.948 -23066355.341 10 0 59607 10800.00000 0 -9140975.358 7915500.555 -22430458.182 10 0 59607 11700.00000 0 -11793383.176 7345418.347 -21357634.480 10 0 59607 12600.00000 0 -14326291.384 7004415.037 -19868622.866 10 0 59607 13500.00000 0 -16671959.534 6877471.835 -17992312.789 10 0 59607 14400.00000 0 -18768234.956 6937787.392 -15765187.252 10 0 59607 15300.00000 0 -20560976.959 7148076.986 -13230612.500 10 0 59607 16200.00000 0 -22006157.898 7462330.603 -10437988.329 10 0 59607 17100.00000 0 -23071552.066 7827954.603 -7441775.834 10 0 59607 18000.00000 0 -23737940.745 8188204.902 -4300422.437 10 0 59607 18900.00000 0 -23999782.567 8484806.762 -1075206.351 10 0 59607 19800.00000 0 -23865321.241 8660648.135 2170975.408 10 0 59607 20700.00000 0 -23356127.021 8662430.305 5374849.953 10 0 59607 21600.00000 0 -22506092.735 8443161.602 8474016.424 10 0 59607 22500.00000 0 -21359928.588 7964386.935 11408172.859 10 0 59607 23400.00000 0 -19971221.335 7198057.719 14120296.783 10 0 59607 24300.00000 0 -18400141.749 6127962.552 16557755.756 10 0 59607 25200.00000 0 -16710898.736 4750658.187 18673326.026 10 0 59607 26100.00000 0 -14969048.622 3075861.957 20426099.810 10 0 59607 27000.00000 0 -13238773.325 1126289.804 21782264.531 10 0 59607 27900.00000 0 -11580241.581 -1063052.600 22715740.319 10 0 59607 28800.00000 0 -10047163.016 -3446095.263 23208665.082 10 0 59607 29700.00000 0 -8684635.918 -5967394.230 23251719.658 10 0 59607 30600.00000 0 -7527376.639 -8564216.483 22844288.601 10 0 59607 31500.00000 0 -6598402.259 -11168932.920 21994455.091 10 0 59607 32400.00000 0 -5908218.999 -13711620.955 20718831.427 10 0 59607 33300.00000 0 -5454547.889 -16122769.951 19042229.195 10 0 59607 34200.00000 0 -5222597.087 -18335978.789 16997175.939 10 0 59607 35100.00000 0 -5185867.835 -20290535.454 14623287.563 10 0 59607 36000.00000 0 -5307459.242 -21933773.408 11966508.087 10 0 59607 36900.00000 0 -5541816.785 -23223108.497 9078230.634 10 0 59607 37800.00000 0 -5836851.166 -24127673.171 6014315.542 10 0 59607 38700.00000 0 -6136339.000 -24629481.060 2834023.303 10 0 59607 39600.00000 0 -6382505.075 -24724073.925 -401118.174 10 0 59607 40500.00000 0 -6518678.249 -24420624.153 -3628491.324 10 0 59607 41400.00000 0 -6491909.722 -23741488.186 -6785589.951 10 0 59607 42300.00000 0 -6255443.666 -22721228.809 -9811221.063 10 0 59607 43200.00000 0 -5770935.945 -21405146.227 -12646684.915 10 0 59607 44100.00000 0 -5010326.682 -19847378.179 -15236910.822 10 0 59607 45000.00000 0 -3957286.568 -18108647.436 -17531526.845 10 0 59607 45900.00000 0 -2608174.123 -16253749.839 -19485842.580 10 0 59607 46800.00000 0 -972461.287 -14348887.073 -21061725.738 10 0 59607 47700.00000 0 927393.248 -12458955.205 -22228354.949 10 0 59607 48600.00000 0 3056620.562 -10644902.171 -22962833.504 10 0 59607 49500.00000 0 5369342.538 -8961264.800 -23250651.195 10 0 59607 50400.00000 0 7810249.712 -7453988.912 -23085984.178 10 0 59607 51300.00000 0 10316688.128 -6158624.369 -22471825.814 10 0 59607 52200.00000 0 12821069.700 -5098971.457 -21419944.630 10 0 59607 53100.00000 0 15253506.347 -4286236.193 -19950668.937 10 0 59607 54000.00000 0 17544558.237 -3718730.683 -18092501.127 10 0 59607 54900.00000 0 19627980.962 -3382131.483 -15881568.185 10 0 59607 55800.00000 0 21443355.865 -3250285.168 -13360918.549 10 0 59607 56700.00000 0 22938492.261 -3286526.633 -10579678.816 10 0 59607 57600.00000 0 24071499.629 -3445453.501 -7592087.007 10 0 59607 58500.00000 0 24812441.622 -3675080.176 -4456422.084 10 0 59607 59400.00000 0 25144501.679 -3919278.491 -1233851.791 10 0 59607 60300.00000 0 25064610.930 -4120399.419 2012777.158 10 0 59607 61200.00000 0 24583512.301 -4221962.525 5220181.098 10 0 59607 62100.00000 0 23725259.093 -4171297.020 8325887.642 10 0 59607 63000.00000 0 22526170.623 -3922020.663 11269464.172 10 0 59607 63900.00000 0 21033290.788 -3436250.141 13993701.257 10 0 59607 64800.00000 0 19302416.431 -2686448.539 16445727.156 10 0 59607 65700.00000 0 17395780.322 -1656831.514 18578031.470 10 0 59607 66600.00000 0 15379487.653 -344273.072 20349378.313 10 0 59607 67500.00000 0 13320814.637 1241326.681 21725592.198 10 0 59607 68400.00000 0 11285482.624 3077226.515 22680202.765 10 0 59607 69300.00000 0 9335021.424 5128573.248 23194937.535 10 0 59607 70200.00000 0 7524330.750 7349644.011 23260055.008 10 0 59607 71100.00000 0 5899539.741 9685549.499 22874513.540 10 0 59607 72000.00000 0 4496251.572 12074327.268 22045974.329 10 0 59607 72900.00000 0 3338243.735 14449338.545 20790639.834 10 0 59607 73800.00000 0 2436675.535 16741869.929 19132931.605 10 0 59607 74700.00000 0 1789833.470 18883833.115 17105014.197 10 0 59607 75600.00000 0 1383422.994 20810452.123 14746174.325 10 0 59607 76500.00000 0 1191392.879 22462828.021 12102066.731 10 0 59607 77400.00000 0 1177256.706 23790276.057 9223840.558 10 0 59607 78300.00000 0 1295855.595 24752339.362 6167162.040 10 0 59607 79200.00000 0 1495488.278 25320396.416 2991151.140 10 0 59607 80100.00000 0 1720319.418 25478795.827 -242748.464 10 0 59607 81000.00000 0 1912965.475 25225471.229 -3471945.385 10 0 59607 81900.00000 0 2017149.862 24572010.284 -6633900.886 10 0 59607 82800.00000 0 1980315.997 23543174.097 -9667331.097 10 0 59607 83700.00000 0 1756088.252 22175886.026 -12513388.545 10 0 59607 84600.00000 0 1306476.700 20517730.791 -15116800.557 10 0 59607 85500.00000 0 603731.918 18625025.191 -17426942.574 99